Location: ???????????
(55.5500°N, 39.4333°E)
Time: 21:33:22
(UTC+00:00)

Daily predictions for brighter satellites

Satellite Brightness Start Highest point End
(mag) Time Altitude Azimuth Time Altitude Azimuth Time Altitude Azimuth
Cosmos 1634 Rocket 4.2 13:26:03 10° SSE 13:31:59 51° E 13:37:55 10° NNE
Cosmos 1570 Rocket 4.2 13:27:42 10° NNW 13:33:05 87° WSW 13:38:25 10° SSE
Cosmos 2227 Rocket 2.6 13:28:08 10° NNW 13:33:32 43° NE 13:38:54 10° ESE
Iridium 51 4.4 13:32:11 10° SSE 13:35:06 35° E 13:38:05 10° NNE
Cosmos 1602 Rocket 4.2 13:32:41 10° N 13:36:42 33° ENE 13:40:40 10° SE
Cosmos 1464 Rocket 4.3 13:30:50 10° SSW 13:36:58 70° WNW 13:43:06 10° N
Cosmos 1455 Rocket 3.0 13:33:39 10° S 13:37:59 81° E 13:42:24 10° NNE
Cosmos 2369 Rocket 2.8 13:34:03 10° WSW 13:39:34 52° NW 13:45:09 10° NNE
IRS-1D 4.3 13:35:27 10° S 13:40:17 54° WSW 13:45:08 10° NNW
Cosmos 773 Rocket 4.0 13:36:05 10° NNW 13:41:20 83° ENE 13:46:35 10° SSE
Cosmos 2279 Rocket 4.3 13:38:01 10° SSE 13:43:51 45° E 13:49:45 10° NNE
CZ-2D R/B 4.2 13:42:38 10° ESE 13:44:55 19° ENE 13:47:13 10° NNE
Cosmos 1092 Rocket 4.2 13:39:13 10° NNW 13:45:24 81° W 13:51:32 10° S
Iridium 45 4.3 13:44:00 10° S 13:47:11 88° W 13:50:29 10° N
YAOGAN 1 4.2 13:47:10 10° E 13:49:22 14° NE 13:51:33 10° NNE
NOSS 2-2 (D) 3.9 13:47:35 10° SSW 13:50:26 28° SE 13:52:57 11° ENE
Cosmos 1867 3.6 13:45:17 10° NW 13:50:47 79° NE 13:56:15 10° SE
Cosmos 2278 Rocket 3.9 13:47:11 10° WNW 13:51:18 20° NNW 13:55:26 10° NNE
Cosmos 1697 Rocket 4.1 13:48:18 10° SE 13:52:04 19° E 13:55:48 10° ENE
Intercosmos 24 3.6 13:48:38 10° N 13:52:41 71° ENE 13:56:14 10° SSE
Cosmos 2151 3.3 13:48:46 10° N 13:52:45 42° ENE 13:56:43 10° SE
Cosmos 1607 4.2 13:47:04 10° NW 13:53:18 79° SW 13:59:34 10° SE
Cosmos 1743 2.5 13:52:40 10° N 13:55:50 47° ENE 13:58:59 10° SSE
MOS 1 Rocket 4.1 13:57:00 10° SE 14:01:33 36° ENE 14:06:19 10° N
Cosmos 2084 3.6 13:57:28 10° WSW 14:01:39 67° NNW 14:05:23 12° NE
NOSS 3-2 (A) 3.5 13:56:58 10° SSW 14:02:01 56° SE 14:07:44 12° NE
Cosmos 1900 4.4 13:57:19 10° NW 14:02:26 90° NE 14:07:26 10° SE
NOSS 3-2 (C) 4.2 13:59:33 10° S 14:03:57 29° ESE 14:08:27 12° ENE
IGS 5A 3.3 14:00:04 10° SSE 14:04:01 74° ENE 14:08:00 10° NNW
SL-08 ROCKET BODY 4.4 13:59:45 10° N 14:05:44 79° ENE 14:11:46 10° SSE
ARIANE 5 R/B 2.7 14:01:36 10° SE 14:06:28 49° ENE 14:11:27 10° N
Cosmos 1356 Rocket 3.5 14:04:19 10° SSW 14:08:24 79° WNW 14:12:31 10° NNE
Cosmos 1825 Rocket 4.1 14:05:55 10° N 14:09:58 36° ENE 14:13:58 10° SE
NOSS 2-2 (E) 3.6 14:07:28 10° SSW 14:10:25 34° SE 14:12:22 16° ENE
Cosmos 1656 3.9 14:04:56 10° SSW 14:10:25 57° ESE 14:15:50 11° NE
Cosmos 2084 Rocket 4.0 14:07:06 10° WNW 14:11:16 59° SW 14:15:24 10° SE
SAR-Lupe-4 4.0 14:08:08 10° SE 14:11:28 39° ENE 14:14:49 10° N
Cosmos 1758 Rocket 3.6 14:08:59 10° NNW 14:13:20 84° WSW 14:17:37 10° S
CZ-4C R/B 3.1 14:07:36 10° NW 14:14:10 75° SW 14:22:30 10° SE
Resurs 01 Rocket 3.5 14:14:57 12° NE 14:14:57 12° NE 14:15:58 10° NNE
Meteor 1-20 Rocket 4.1 14:09:27 10° N 14:14:56 68° ENE 14:20:22 10° SSE
Cosmos 2266 Rocket 3.9 14:09:14 10° N 14:15:23 63° ENE 14:21:23 10° SSE
Cosmos 1782 2.5 14:12:58 10° S 14:16:31 60° E 14:20:04 10° NNE
UNK 4.3 14:12:57 10° NNE 14:17:16 38° E 14:21:31 10° SSE
Cosmos 2098 Rocket 3.3 14:14:46 10° S 14:19:03 58° E 14:24:05 10° NNE
Cosmos 2082 4.3 14:15:18 10° NNW 14:20:35 37° NE 14:25:53 10° ESE
SAR-Lupe-1 4.3 14:18:46 10° SE 14:22:12 44° ENE 14:25:41 10° N
SPOT 1/Viking Rocket 4.0 14:18:21 10° SE 14:23:05 37° ENE 14:27:51 10° N
CBERS-1 4.4 14:20:46 10° S 14:25:51 68° WSW 14:30:59 10° NNW
Cosmos 2297 Rocket 3.0 14:20:47 10° NW 14:26:20 57° WSW 14:31:52 10° SSE
CZ-2D R/B 4.3 14:22:49 10° ESE 14:26:20 27° ENE 14:29:50 10° N
Cosmos 1076 Rocket 4.0 14:24:48 10° N 14:28:48 36° ENE 14:32:48 10° SE
SMAP 3.0 14:24:20 10° SSE 14:29:00 84° ENE 14:33:41 10° NNW
Cosmos 405 Rocket 4.3 14:26:09 10° NNW 14:29:05 31° W 14:31:59 10° SSW
IRS-P3 4.2 14:24:04 10° SE 14:29:14 55° ENE 14:34:26 10° N
NOSS 2-2 (C) 2.7 14:29:05 10° WSW 14:32:09 71° NW 14:33:49 24° NE
PSLV R/B 4.5 14:30:38 12° ESE 14:33:29 24° ENE 14:36:46 10° N
Landsat 7 3.7 14:29:12 10° SSE 14:33:50 74° ENE 14:38:30 10° NNW
Cosmos 1538 Rocket 4.1 14:31:28 10° NNW 14:36:38 53° NE 14:41:51 10° SE
Meteor 1-28 Rocket 2.8 14:36:37 11° NNE 14:39:48 89° NE 14:43:09 10° SSW
SJ-6F 4.4 14:35:55 10° SSE 14:39:49 55° ENE 14:43:47 10° N
[s.n.66845] 2.3 14:39:28 10° NNW 14:41:45 32° NE 14:41:45 32° NE
[s.n.66847] 2.3 14:39:55 10° NNW 14:42:12 32° NNE 14:42:12 32° NNE
[s.n.66846] 2.3 14:40:20 10° NNW 14:42:37 33° NNE 14:42:37 33° NNE
[s.n.66843] 2.3 14:40:53 10° NNW 14:43:09 33° NNE 14:43:09 33° NNE
[s.n.66844] 2.3 14:41:19 10° NNW 14:43:35 33° NNE 14:43:35 33° NNE
CENTAUR R/B 2.9 14:37:53 10° WSW 14:44:02 65° NNW 14:49:50 19° NE
[s.n.66842] 2.3 14:41:51 10° NNW 14:44:06 33° NNE 14:44:06 33° NNE
[s.n.66841] 2.3 14:42:18 10° NNW 14:44:34 34° NNE 14:44:34 34° NNE
[s.n.66840] 2.3 14:42:48 10° NNW 14:45:03 34° NNE 14:45:03 34° NNE
[s.n.66838] 2.3 14:43:16 10° NNW 14:45:31 34° NNE 14:45:31 34° NNE
Cosmos 2219 3.3 14:40:41 10° NNW 14:46:19 55° NE 14:51:58 10° SE
[s.n.66839] 2.3 14:43:46 10° NNW 14:46:00 34° NNE 14:46:00 34° NNE
SL-16 R/B 2.6 14:40:10 10° NNE 14:46:26 82° WNW 14:52:38 10° SSW
[s.n.66837] 2.3 14:44:13 10° NNW 14:46:28 35° NNE 14:46:28 35° NNE
[s.n.66836] 2.2 14:44:43 10° NNW 14:46:57 35° NNE 14:46:57 35° NNE
[s.n.66835] 2.2 14:45:14 10° NNW 14:47:27 35° NNE 14:47:27 35° NNE
Thor Agena Rocket 4.1 14:42:57 10° S 14:48:06 61° WSW 14:53:13 10° NNW
[s.n.66834] 2.2 14:45:43 10° NNW 14:47:56 36° NNE 14:47:56 36° NNE
Cosmos 1606 Rocket 3.8 14:44:08 10° SSE 14:48:22 47° E 14:51:39 16° NNE
[s.n.66833] 2.2 14:46:09 10° NNW 14:48:22 36° NNE 14:48:22 36° NNE
[s.n.66832] 2.2 14:46:41 10° NNW 14:48:54 36° NNE 14:48:54 36° NNE
Cosmos 1315 Rocket 4.5 14:46:00 10° SW 14:49:26 31° WNW 14:52:53 10° N
Cosmos 1503 Rocket 4.0 14:44:33 10° S 14:49:42 61° ESE 14:53:23 19° NE
[s.n.66831] 2.2 14:47:06 10° NNW 14:49:19 36° NNE 14:49:19 36° NNE
[s.n.66830] 2.2 14:47:32 10° NNW 14:49:44 36° NNE 14:49:44 36° NNE
[s.n.66828] 2.2 14:47:58 10° NNW 14:50:09 37° NNE 14:50:09 37° NNE
GEOS 3 Rocket 4.0 14:47:48 22° ENE 14:51:04 50° SE 14:56:17 10° SSW
[s.n.66829] 2.2 14:48:29 10° NNW 14:50:41 37° NNE 14:50:41 37° NNE
USA 281 4.4 14:49:00 19° NE 14:51:13 23° NNE 14:56:08 10° NNW
[s.n.66827] 2.2 14:49:01 10° NNW 14:51:12 37° NNE 14:51:12 37° NNE
[s.n.66826] 2.2 14:49:31 10° NNW 14:51:41 37° NNE 14:51:41 37° NNE
[s.n.66825] 2.2 14:49:58 10° NNW 14:52:07 37° NNE 14:52:07 37° NNE
[s.n.66824] 2.2 14:50:29 10° NNW 14:52:39 38° NNE 14:52:39 38° NNE
[s.n.66823] 2.2 14:50:59 10° NNW 14:53:09 38° NNE 14:53:09 38° NNE
Cosmos 1844 Rocket 3.5 14:48:46 10° NNW 14:53:46 31° NE 14:55:40 25° ENE
[s.n.66822] 2.2 14:51:28 10° NNW 14:53:38 38° NNE 14:53:38 38° NNE
[s.n.66821] 2.2 14:51:56 10° NNW 14:54:05 38° NNE 14:54:05 38° NNE
Cosmos 1980 Rocket 3.2 14:50:40 10° SSE 14:55:12 26° ESE 14:56:11 24° E
Meteor 1-25 Rocket 4.4 14:49:26 10° NNW 14:55:19 83° WSW 15:01:05 10° S
Meteor 1-5 Rocket 4.0 14:50:23 10° NNW 14:55:43 73° ENE 15:01:10 10° SSE
Cosmos 1544 Rocket 4.2 14:53:18 10° SSW 14:57:40 58° WNW 15:02:04 10° N
AQUARIUS 4.1 14:53:32 10° SSE 14:57:58 89° W 15:02:25 10° NNW
Cosmos 1354 Rocket 4.1 14:54:11 10° S 14:59:17 54° ESE 15:02:16 24° NE
Resurs 1-3 3.8 14:56:31 10° SE 15:00:35 43° ENE 15:04:41 10° N
Cosmos 2263 Rocket 2.1 14:55:52 10° NNW 15:01:35 84° NE 15:07:17 10° SE
Lacrosse 5 rocket 1.0 14:59:21 10° W 15:03:04 72° N 15:04:06 44° ENE
USA 238 DEB 4.4 14:59:27 10° S 15:04:39 29° ESE 15:06:19 26° E
USA 238 4.4 14:59:35 10° S 15:04:46 29° ESE 15:06:26 26° E
Spot 4 Rocket 4.0 15:01:00 10° SE 15:05:59 57° ENE 15:11:01 10° N
Cosmos 1777 Rocket 3.9 15:00:45 10° SSW 15:06:00 88° ESE 15:09:43 20° NNE
Lacrosse 4 Rocket 2.9 15:02:54 10° W 15:06:20 26° NNW 15:08:19 18° NNE
USA 215 3.2 15:06:29 26° E 15:10:31 80° N 15:17:06 10° W
Okean 1-7 Rocket 4.4 15:08:00 10° NNW 15:12:18 53° W 15:16:32 10° S
Cosmos 1726 Rocket 3.6 15:07:46 10° S 15:12:20 60° E 15:14:56 24° NNE
Cosmos 44 Rocket 3.8 15:08:42 10° NW 15:13:35 44° NNE 15:14:56 36° ENE
CZ-2D R/B 4.1 15:13:37 10° S 15:16:37 41° W 15:19:39 10° NNW
NOSS 2-3 (E) 4.2 15:14:00 10° S 15:16:49 29° SE 15:16:49 29° SE
Cosmos 2227 Rocket 3.0 15:12:16 10° NW 15:17:44 52° WSW 15:23:11 10° S
NOSS 2-3 (D) 4.3 15:14:46 10° S 15:17:27 28° SE 15:17:27 28° SE
Cosmos 1943 Rocket 3.9 15:14:51 10° NW 15:18:17 16° N 15:19:30 15° NNE
Cosmos 923 Rocket 4.0 15:13:27 10° NNW 15:18:34 53° NE 15:20:52 30° ESE
SKYMED 2 3.7 15:21:36 47° E 15:21:55 48° E 15:26:08 10° S
Cosmos 1461 2.6 15:19:49 10° SW 15:23:44 83° SE 15:24:21 62° ENE
Cosmos 1933 3.3 15:20:34 10° SSW 15:24:23 75° WNW 15:26:20 27° N
YAOGAN 1 2.4 15:20:15 10° SSE 15:24:29 70° ENE 15:28:46 10° NNW
Cosmos 2369 Rocket 4.0 15:20:33 10° WNW 15:24:54 22° NNW 15:28:01 14° NNE
Cosmos-2242 4.3 15:21:45 10° SSE 15:23:49 25° SE 15:23:49 25° SE
Cosmos 1486 Rocket 4.5 15:20:37 10° SW 15:25:46 59° WNW 15:29:25 20° NNE
Cosmos 1655 Rocket 4.0 15:20:15 10° NNW 15:26:32 82° W 15:32:45 10° S
BREEZE-M DEB (TANK) 4.2 15:23:31 10° WSW 15:26:48 39° S 15:33:52 15° ESE
Cosmos 2360 4.5 15:22:35 10° SW 15:28:17 67° NW 15:31:46 25° NNE
Meteor 2-10 4.0 15:26:28 10° NNW 15:31:50 87° ENE 15:37:21 10° SSE
Cosmos 1697 Rocket 2.6 15:29:36 10° SSW 15:35:12 82° ESE 15:37:32 37° NE
Cosmos 990 Rocket 3.8 15:32:07 10° SSW 15:37:15 84° ESE 15:39:11 40° NNE
Cosmos 2278 Rocket 3.9 15:33:49 10° NNW 15:37:34 18° N 15:38:10 17° NNE
Cosmos 1953 Rocket 4.0 15:34:00 10° NNW 15:38:25 64° W 15:42:48 10° S
Aureole 1 Rocket 3.6 15:34:38 10° S 15:39:09 50° ESE 15:39:11 50° ESE
MOS 1 Rocket 4.5 15:34:37 10° S 15:39:27 48° W 15:44:33 10° NNW
NOSS 2-2 (D) 3.9 15:36:33 10° W 15:39:04 37° NW 15:39:04 37° NW
Cosmos 2084 4.5 15:37:06 10° WNW 15:40:52 32° N 15:41:06 31° N
Cosmos 494 Rocket 4.3 15:39:19 10° NNW 15:44:00 47° NE 15:44:00 47° NE
ARIANE 5 R/B 4.2 15:41:07 10° SSW 15:45:43 34° W 15:50:24 10° NNW
Resurs 01 Rocket 3.2 15:52:21 22° N 15:52:21 22° N 15:54:03 10° N
Cosmos 1680 Rocket 3.4 15:45:53 10° NNW 15:51:06 68° ENE 15:51:29 65° E
USA 81 4.2 15:46:28 10° N 15:51:45 75° W 15:57:00 10° S
NOAA 6 3.9 15:47:39 10° SSE 15:52:46 88° ENE 15:57:54 10° NNW
NOSS 3-2 (A) 3.8 15:47:27 10° WSW 15:52:51 56° NNW 15:55:04 38° NNE
NOSS 3-2 (C) 3.3 15:48:43 10° SW 15:54:04 81° NW 15:55:51 49° NE
IRAS Rocket 4.3 15:51:51 10° SSE 15:57:20 75° WSW 16:02:50 10° NNW
Cosmos 1844 3.8 15:52:41 10° NNW 15:57:58 55° NE 15:57:58 55° NE
Meteor 2-2 Rocket 4.1 15:52:55 10° S 15:58:30 67° E 15:58:58 64° ENE
Gbstr 26 Del rocket 4.2 15:55:05 10° SW 15:57:35 29° SSW 15:57:35 29° SSW
CZ-2D R/B 4.4 15:57:02 10° S 16:01:05 47° W 16:05:07 10° NNW
Cosmos 2082 4.0 15:59:24 10° NW 16:05:05 67° WSW 16:08:44 23° SSE
PSLV R/B 4.1 16:06:53 32° SSW 16:08:26 53° W 16:12:26 10° NNW
COSMO-SKYMED 1 4.2 16:12:53 24° SSW 16:12:53 24° SSW 16:14:32 10° SSW
Cosmos 2227 4.0 16:08:13 10° NNW 16:13:46 78° NE 16:13:46 78° NE
Cosmos 2058 Rocket 3.7 16:10:09 10° SSW 16:13:32 50° SSW 16:13:32 50° SSW
Meteor 2-11 Rocket 4.3 16:08:31 10° NNW 16:14:44 89° WSW 16:20:54 10° S
Meteor 1-26 Rocket 4.1 16:17:58 10° SSW 16:23:10 81° WSW 16:23:10 81° WSW
Cosmos 1553 Rocket 3.9 16:22:13 10° S 16:28:25 88° W 16:30:06 52° N
GEOS 3 Rocket 4.0 16:28:51 58° NNW 16:29:08 59° NNW 16:34:26 10° WSW
SL-16 R/B 4.4 16:24:23 10° N 16:29:15 25° NW 16:34:05 10° W
Cosmos 2219 4.4 16:25:04 10° NW 16:30:21 40° WSW 16:35:39 10° S
USA 281 3.7 16:35:52 46° NNE 16:35:52 46° NNE 16:40:56 10° NNW
CENTAUR R/B 3.4 16:29:14 10° WNW 16:35:50 47° N 16:36:56 45° NNE
Cosmos 1844 Rocket 3.0 16:32:36 10° NW 16:37:20 63° NW 16:37:20 63° NW
Cosmos 1980 Rocket 2.4 16:33:00 10° SW 16:37:57 66° WSW 16:37:57 66° WSW
Lacrosse 5 rocket 3.7 16:36:33 10° WNW 16:37:41 19° WNW 16:37:41 19° WNW
Cosmos 1745 Rocket 3.9 16:34:02 10° NNW 16:40:05 81° WNW 16:40:05 81° WNW
Cosmos 2263 Rocket 4.4 16:40:31 10° NW 16:44:53 23° WSW 16:49:15 10° SSW
Lacrosse 4 Rocket 4.1 16:43:13 10° NW 16:43:48 12° NNW 16:43:48 12° NNW
USA 215 3.2 16:53:50 77° SW 16:53:50 77° SW 17:00:14 10° WNW
USA 238 DEB 3.7 16:48:31 10° SW 16:53:47 67° SW 16:53:47 67° SW
USA 238 3.7 16:48:37 10° SW 16:53:53 66° SW 16:53:53 66° SW
Cosmos 1943 Rocket 4.2 16:59:16 10° NNW 17:00:59 18° NNW 17:00:59 18° NNW
Cosmos 2369 Rocket 4.4 17:07:21 10° NW 17:09:47 16° N 17:09:47 16° N
Cosmos 1697 Rocket 4.2 17:14:47 10° W 17:19:16 31° NW 17:19:16 31° NW
Cosmos 2278 Rocket 4.4 17:18:25 10° NNW 17:19:58 17° NNW 17:19:58 17° NNW
CENTAUR R/B 4.3 18:20:21 10° NW 18:24:02 33° NW 18:24:02 33° NW
ACS3 Solar Sail 4.5 23:32:17 10° NNE 23:32:36 11° NNE 23:32:36 11° NNE
